Weather in Tirana

Albania     41°19′50″N   19°49′13″E
temp.,
°C
wind,
m/s
gust,
m/s
humid.,
%
clouds,
%
prec.,
mm/h
press.,
hPa
HPBL,
m
24 june, thu
thu2423:00+26e22520 0.0 101611
02:00+24nw11565 0.0 101711
05:00+25ese22485 0.0 101615
08:00+30nw22404 0.0 1016238
11:00+36wnw442857 0.0 1016855
14:00+39nw231990 0.0 10161403
17:00+33nw45355 0.0 1016474
20:00+28nnw11464 0.0 101611
25 june, fri
fri2523:00+26ese114471 0.0 101611
02:00+26e22416 0.0 101511
05:00+25e11375 0.0 101411
08:00+31s00295 0.0 1015187
11:00+36wnw44225 0.0 10151047
14:00+36wnw45234 0.0 10151133
17:00+34wnw4628100 0.0 1014895
20:00+29sse11399 0.0 101311
26 june, sat
sat2623:00+26e21415 0.0 101411
02:00+25e11420 0.0 101311
05:00+24ese22410 0.0 101311
08:00+30w00330 0.0 1013223
11:00+33wnw43320 0.0 10131111
14:00+33wnw65350 0.0 10131054
17:00+31wnw44370 0.0 1012789
20:00+24wnw22601 0.0 101213
27 june, sun
sun2723:00+21ene11670 0.0 101411
02:00+20ne11710 0.0 101411
05:00+20e22610 0.0 101311
08:00+26w10410 0.0 1014275
11:00+31nw22310 0.0 10131017
14:00+33wnw53280 0.0 10131629
17:00+30wnw54370 0.0 1013784
20:00+24nnw22650 0.0 101312
28 june, mon
mon2823:00+21e11680 0.0 101411
02:00+21ene00680 0.0 101411
05:00+20e11710 0.0 101511
08:00+27se01460 0.0 1015282
11:00+33wnw22330 0.0 10141118
14:00+34wnw64320 0.0 10141494
17:00+32nw44350 0.0 1014717
20:00+26n11490 0.0 101411